[[{"header":{"parameterUnit":"m.s-1","parameterCategory":1,"la1":30.2991,"la2":30.254,"lo1":-89.0895,"lo2":-89.0444,"dy":0.0017,"dx":0.0017,"nx":28,"ny":28,"refTime":"2025-08-21T03:00:00:Z","depth":0,"parameterNumber":2,"parameterNumberName":"U-component_of_WINDS"},"data":[0,0,0,0,0,0,0,0,0,0,0,0,0,0,0,0,0,0,0,0,0,0,0,0,0,0,0,0,0,0,0,0,0,0,0,0,0,0,0,0,0,0,0,0,0,0,0,0,0,0,0,0,0,0,0,0,0,0,0.452,0.452,0,0.4522,0.4522,0.4522,0.4506,0.4506,0.4505,0.4505,0.451,0.451,0.4511,0,0,0,0,0,0,0,0,0,0,0,0,0,0.4502,0.4502,0.452,0.452,0.452,0.4522,0.4522,0.4522,0.4506,0.4506,0.4505,0.4505,0.451,0.451,0.4511,0,0,0,0,0,0,0,0,0,0,0,0,0,0.4508,0.4502,0.452,0.4512,0.4511,0.4522,0.4522,0.4522,0.4507,0.4506,0.4505,0.4505,0.4509,0.451,0.4511,0.453,0,0,0.4514,0.4514,0,0,0,0,0,0,0,0,0.4507,0.4508,0.4513,0.4512,0.4512,0.4513,0.4518,0.4525,0.4507,0.4508,0.4505,0.4504,0.4512,0.4512,0.4514,0.453,0.453,0.4514,0.4514,0.4515,0.4515,0,0,0,0,0,0,0,0.4507,0.4508,0.4521,0.4513,0.4512,0.4509,0.4509,0.4519,0.4514,0.4508,0.4507,0.4508,0.4511,0.4514,0.4514,0.4531,0.4514,0.4514,0.4515,0.4515,0.4561,0.4562,0,0,0,0,0,0,0.4507,0.4508,0.4521,0.4521,0.4508,0.451,0.451,0.4514,0.4514,0.4513,0.4508,0.4507,0.4512,0.4513,0.4514,0.4536,0.4515,0.4515,0.4516,0.4561,0.4562,0.4562,0,0,0,0,0,0,0.4507,0.4509,0.452,0.4514,0.4515,0.4511,0.4515,0.4514,0.4516,0.4514,0.4513,0.4511,0.4512,0.4513,0.4526,0.4536,0.4516,0.4516,0.456,0.4561,0.4562,0.458,0,0,0,0,0,0,0.4507,0.4509,0.4516,0.4514,0.4516,0.4532,0.4516,0.4514,0.4518,0.4516,0.4517,0.4516,0.4512,0.4525,0.4527,0.4537,0.4517,0.4559,0.456,0.4562,0.4579,0.4582,0.4585,0,0,0,0,0,0.4506,0.4521,0.4516,0.4518,0.4524,0.4532,0.4533,0.4527,0.4518,0.4525,0.4524,0.4516,0.4535,0.4526,0.4528,0.4539,0.4558,0.456,0.4562,0.4577,0.4581,0.4584,0,0,0,0,0,0,0.4525,0.4521,0.4515,0.453,0.4532,0.453,0.4538,0.4531,0.4536,0.4534,0.4527,0.4527,0.4541,0.4541,0.4532,0.4557,0.4545,0.4547,0.4556,0.456,0.4563,0.4563,0.4518,0,0,0,0,0,0.453,0.4537,0.4533,0.4547,0.4548,0.4543,0.4546,0.4542,0.4543,0.4544,0.4543,0.4545,0.4551,0.4556,0.4561,0.4579,0.4578,0.4587,0.459,0.4592,0.4594,0.4603,0.4606,0.4568,0.4568,0.4568,0,0,0.4543,0.4541,0.4546,0.4551,0.4551,0.4558,0.4544,0.4552,0.4557,0.4545,0.4557,0.4556,0.4558,0.4573,0.458,0.4574,0.4605,0.4594,0.4596,0.4597,0.4605,0.4608,0.4612,0.4569,0.4569,0.4568,0,0,0.4569,0.4568,0.4579,0.458,0.458,0.4577,0.4579,0.4578,0.4577,0.4589,0.4579,0.4586,0.4597,0.4598,0.46,0.4626,0.4619,0.4628,0.4643,0.4652,0.4655,0.4657,0.4666,0.467,0.463,0.463,0.463,0,0.4584,0.4594,0.4586,0.4595,0.4597,0.4585,0.4596,0.4598,0.46,0.4602,0.4595,0.4608,0.4609,0.4624,0.463,0.4632,0.4635,0.4628,0.4655,0.4657,0.466,0.4668,0.4672,0.4631,0.4631,0.4631,0.4631,0,0.4613,0.462,0.4629,0.463,0.4634,0.4644,0.4638,0.4642,0.4637,0.4634,0.4645,0.4645,0.465,0.4654,0.4649,0.4668,0.4664,0.4656,0.4644,0.4665,0.4672,0.4676,0.4633,0.4632,0.4632,0.4632,0,0,0.4651,0.4648,0.4651,0.4652,0.4651,0.4656,0.4666,0.467,0.4674,0.4676,0.4683,0.4692,0.4685,0.4687,0.4683,0.469,0.471,0.4681,0.4681,0.4686,0.473,0.4736,0.474,0.4705,0.4706,0.4706,0.473,0,0.4676,0.4691,0.4684,0.47,0.4707,0.4695,0.4703,0.4704,0.4701,0.4706,0.4704,0.471,0.47,0.4701,0.4708,0.4706,0.4718,0.4704,0.4712,0.4713,0.4712,0.4744,0.4751,0.4773,0.4733,0.4733,0.4734,0,0.4708,0.471,0.4727,0.4724,0.4726,0.4734,0.4737,0.4742,0.4742,0.474,0.4742,0.4735,0.4744,0.4732,0.4744,0.4735,0.4738,0.4737,0.4738,0.4738,0.4725,0.4746,0.478,0.4784,0.4739,0.4738,0.4738,0,0.4734,0.4741,0.4752,0.4753,0.475,0.4755,0.4755,0.4754,0.4757,0.476,0.4761,0.4765,0.4768,0.4771,0.4765,0.4757,0.4779,0.4766,0.4777,0.4777,0.4783,0.4782,0.4818,0.4784,0.4784,0.4784,0.4784,0,0.4763,0.4774,0.4764,0.477,0.4781,0.4773,0.4785,0.4783,0.4782,0.4789,0.4779,0.4785,0.4777,0.4783,0.4779,0.4789,0.4791,0.4789,0.4788,0.479,0.479,0.4792,0.479,0.4785,0.4785,0.4785,0.4784,0,0.4794,0.4788,0.4799,0.4795,0.4794,0.4803,0.48,0.4806,0.4802,0.481,0.4811,0.4806,0.4812,0.4806,0.4812,0.4809,0.4824,0.482,0.4823,0.4822,0.4834,0.4833,0.4872,0.4877,0.484,0.484,0.4841,0,0.4813,0.4821,0.4817,0.482,0.482,0.4825,0.4828,0.482,0.4823,0.4823,0.4829,0.4834,0.4837,0.4847,0.4844,0.4848,0.4845,0.4858,0.4845,0.4847,0.4845,0.4844,0.4845,0.4861,0.4861,0.4862,0.4862,0,0.4847,0.4844,0.4847,0.4849,0.4852,0.4854,0.4855,0.4858,0.485,0.4854,0.4859,0.4861,0.4867,0.4871,0.4874,0.4874,0.4867,0.4866,0.4869,0.4871,0.4872,0.4872,0.4831,0.4865,0.4865,0.4865,0.4864,0.4864,0.4873,0.4879,0.4877,0.4881,0.4881,0.4882,0.4887,0.4884,0.4888,0.4891,0.4886,0.4893,0.4892,0.4895,0.4896,0.4901,0.4895,0.4899,0.49,0.4902,0.4903,0.4871,0.4901,0.4901,0.4901,0.4901,0.4901,0,0.4907,0.4905,0.4908,0.4909,0.4913,0.4904,0.4905,0.4908,0.4914,0.4914,0.4917,0.4923,0.4927,0.4924,0.4928,0.4932,0.4929,0.4934,0.4933,0.4933,0.4908,0.4905,0.4936,0.4936,0.4936,0.4936,0.4936,0.4936,0.4924,0.4934,0.493,0.4939,0.4937,0.4943,0.4944,0.4945,0.4944,0.4951,0.4954,0.4952,0.4951,0.4954,0.4958,0.4957,0.4959,0.4964,0.4962,0.4939,0.4935,0.4932,0.4929,0.4965,0.4965,0.4987,0.4987,0.4987]},{"header":{"parameterUnit":"m.s-1","parameterCategory":1,"la1":30.2991,"la2":30.254,"lo1":-89.0895,"lo2":-89.0444,"dy":0.0017,"dx":0.0017,"nx":28,"ny":28,"refTime":"2025-08-21T03:00:00:Z","depth":0,"parameterNumber":3,"parameterNumberName":"V-component_of_WINDS"},"data":[0,0,0,0,0,0,0,0,0,0,0,0,0,0,0,0,0,0,0,0,0,0,0,0,0,0,0,0,0,0,0,0,0,0,0,0,0,0,0,0,0,0,0,0,0,0,0,0,0,0,0,0,0,0,0,0,0,0,0.3548,0.3549,0,0.3598,0.3599,0.36,0.3628,0.3628,0.3628,0.3628,0.3682,0.3683,0.3684,0,0,0,0,0,0,0,0,0,0,0,0,0,0.3479,0.348,0.3548,0.3549,0.3549,0.3598,0.3599,0.36,0.3628,0.3628,0.3628,0.3628,0.3681,0.3683,0.3684,0,0,0,0,0,0,0,0,0,0,0,0,0,0.3517,0.348,0.3548,0.3569,0.3572,0.3598,0.3599,0.36,0.3628,0.3628,0.3628,0.3628,0.3681,0.3683,0.3685,0.3695,0,0,0.3691,0.3692,0,0,0,0,0,0,0,0,0.3515,0.3519,0.3565,0.3568,0.357,0.3607,0.3594,0.3632,0.3628,0.3606,0.3628,0.3628,0.3657,0.3661,0.367,0.3697,0.37,0.3691,0.3692,0.3693,0.3694,0,0,0,0,0,0,0,0.3512,0.3517,0.3568,0.3566,0.3569,0.3577,0.3583,0.3602,0.363,0.3608,0.361,0.3616,0.3658,0.3668,0.3672,0.37,0.3691,0.3693,0.3694,0.3695,0.374,0.374,0,0,0,0,0,0,0.3506,0.3515,0.3566,0.357,0.3542,0.3578,0.3584,0.3595,0.363,0.3636,0.3616,0.3617,0.3665,0.3669,0.3674,0.3688,0.3693,0.3695,0.3696,0.374,0.374,0.374,0,0,0,0,0,0,0.3504,0.351,0.3564,0.3543,0.355,0.3579,0.3591,0.3596,0.3606,0.3636,0.3641,0.362,0.3665,0.3671,0.3689,0.369,0.3696,0.3698,0.374,0.374,0.374,0.3717,0,0,0,0,0,0,0.3502,0.3509,0.3513,0.3543,0.3551,0.3578,0.3591,0.3597,0.3609,0.3611,0.3642,0.3647,0.3665,0.3686,0.3691,0.3693,0.3699,0.374,0.374,0.374,0.3718,0.3716,0.3715,0,0,0,0,0,0.3499,0.3505,0.3513,0.3519,0.3556,0.3578,0.3583,0.3604,0.3609,0.3613,0.3633,0.3646,0.3689,0.3688,0.3694,0.3696,0.374,0.374,0.374,0.3718,0.3717,0.3715,0,0,0,0,0,0,0.3474,0.3509,0.3518,0.3533,0.3553,0.3583,0.3589,0.3601,0.362,0.3622,0.3647,0.3654,0.367,0.3685,0.3683,0.3709,0.3716,0.3717,0.3698,0.3696,0.3695,0.3691,0.3701,0,0,0,0,0,0.347,0.3485,0.3515,0.3525,0.3534,0.356,0.357,0.3584,0.3606,0.3614,0.3635,0.3656,0.3675,0.3687,0.3705,0.372,0.3728,0.3725,0.3724,0.3722,0.3723,0.3733,0.3733,0.3739,0.3739,0.3739,0,0,0.3462,0.3483,0.3491,0.352,0.3537,0.3552,0.3566,0.3582,0.3593,0.3617,0.3636,0.3652,0.3677,0.3694,0.3703,0.3707,0.3723,0.3722,0.3721,0.3723,0.3733,0.3732,0.3732,0.3739,0.3739,0.3739,0,0,0.3456,0.3473,0.3484,0.35,0.3525,0.3542,0.3545,0.3574,0.3585,0.3604,0.3623,0.3638,0.3669,0.3686,0.3699,0.37,0.3714,0.3706,0.3698,0.3708,0.3707,0.3707,0.3708,0.3708,0.3707,0.3707,0.3707,0,0.3443,0.3466,0.3488,0.3502,0.3515,0.3537,0.3548,0.3563,0.3594,0.3602,0.3607,0.3647,0.3666,0.3687,0.3688,0.3697,0.3702,0.3702,0.3705,0.3705,0.3705,0.3707,0.3707,0.3705,0.3706,0.3706,0.3706,0,0.3449,0.3465,0.3471,0.3499,0.3513,0.3525,0.355,0.3561,0.3575,0.3592,0.3612,0.3635,0.3659,0.3665,0.3678,0.3689,0.3691,0.37,0.3708,0.3703,0.3705,0.3705,0.3704,0.3704,0.3705,0.3705,0,0,0.3428,0.3468,0.347,0.3483,0.3513,0.3526,0.354,0.3563,0.3573,0.3593,0.3607,0.3633,0.3642,0.3656,0.3672,0.3681,0.3681,0.3689,0.369,0.3687,0.3695,0.3688,0.3688,0.369,0.369,0.369,0.3693,0,0.3426,0.3452,0.3472,0.3491,0.3506,0.3527,0.354,0.356,0.3577,0.3593,0.3612,0.363,0.364,0.3649,0.3658,0.3679,0.3683,0.3679,0.3703,0.3704,0.3696,0.3689,0.3681,0.3683,0.3694,0.3694,0.3694,0,0.3426,0.3446,0.3466,0.3494,0.3502,0.3513,0.3536,0.3551,0.3575,0.3586,0.3603,0.3619,0.3637,0.3643,0.3668,0.3665,0.3677,0.3688,0.3689,0.3692,0.3698,0.3692,0.3684,0.3684,0.3695,0.3695,0.3695,0,0.3409,0.344,0.3456,0.3467,0.3501,0.3508,0.3523,0.3547,0.356,0.358,0.3589,0.3612,0.3624,0.3642,0.3665,0.3667,0.3688,0.3696,0.3699,0.3698,0.3702,0.3701,0.3695,0.3709,0.3709,0.3709,0.3709,0,0.3404,0.3416,0.3449,0.3458,0.3472,0.3496,0.351,0.3527,0.3548,0.3562,0.3583,0.3596,0.3625,0.3642,0.366,0.3678,0.3684,0.3694,0.3699,0.3693,0.3691,0.37,0.3701,0.3709,0.3709,0.3709,0.3709,0,0.3387,0.3409,0.3428,0.3459,0.3467,0.3476,0.3503,0.3514,0.3532,0.355,0.3556,0.3584,0.3606,0.363,0.3659,0.3672,0.3689,0.3696,0.368,0.3683,0.3684,0.3684,0.3684,0.3686,0.3698,0.3698,0.3698,0,0.3382,0.3391,0.3423,0.3434,0.3448,0.3465,0.3478,0.3503,0.3516,0.3544,0.3552,0.3575,0.3594,0.3628,0.3652,0.3675,0.3683,0.3681,0.3686,0.368,0.3683,0.3682,0.3684,0.3679,0.3679,0.3679,0.3679,0,0.3372,0.3383,0.34,0.3422,0.3438,0.3456,0.3476,0.3484,0.3513,0.3527,0.3548,0.3563,0.3594,0.3616,0.3642,0.3659,0.3674,0.3677,0.3679,0.3672,0.3663,0.3669,0.3677,0.3677,0.3677,0.3677,0.3677,0.3677,0.3361,0.337,0.3394,0.3414,0.3431,0.3449,0.3461,0.3481,0.3499,0.3525,0.3539,0.3561,0.3586,0.3622,0.3639,0.3657,0.3662,0.3664,0.3665,0.3665,0.3664,0.366,0.3662,0.3662,0.3662,0.3662,0.3662,0,0.3352,0.3368,0.3386,0.3413,0.3429,0.3441,0.3464,0.3476,0.3495,0.3517,0.3535,0.3561,0.3583,0.3609,0.3634,0.3643,0.3651,0.3649,0.3649,0.3652,0.3658,0.3654,0.3643,0.3643,0.3643,0.3643,0.3643,0.3643,0.3349,0.3366,0.338,0.3406,0.3423,0.3444,0.3456,0.3473,0.3491,0.3518,0.3536,0.3553,0.3577,0.3604,0.3625,0.3633,0.3641,0.3637,0.3646,0.365,0.3652,0.3653,0.365,0.3638,0.3638,0.3639,0.3639,0.3639]}]]